カタログに戻る

H-2 R/B(2)

運用中HEO
NORAD 23523·ROCKET BODY·🇯🇵 Japan

打ち上げ Mar 18, 1995 から Tanegashima Space Center

Loading…

次のパス (今後24時間)

TLE

最新Source: Space-Track

元期: Sep 14, 2026, 12:39 UTC

1 23523U 95011C   26257.52743388  .00006566  00000-0  10006-2 0  9995
2 23523  25.1433 253.2457 6446598  46.8146 351.5937  3.40640185337258

AllMySatでH-2 R/B(2)をリアルタイム追跡

Download on the App Store